| time (UTC) | temp C | wind direction | speed KPH | gust KPH | rain 1hr cm | rain 24hr cm | rain mn cm | humidity % | barometer mb |
| 20260502163803 | 8 | 301 | 11.3 | 22.5 | 0.00 | 0.84 | 0.66 | 49 | 1012.2 |
| 20260502163302 | 9 | 330 | 9.7 | 14.5 | 0.00 | 0.84 | 0.66 | 52 | 1012.2 |
| 20260502162304 | 8 | 288 | 6.4 | 16.1 | 0.00 | 0.84 | 0.66 | 51 | 1012.2 |
| 20260502161802 | 8 | 293 | 8.0 | 16.1 | 0.00 | 0.84 | 0.66 | 53 | 1012.2 |
| 20260502161302 | 8 | 276 | 9.7 | 19.3 | 0.00 | 0.84 | 0.66 | 54 | 1012.4 |
| 20260502160303 | 8 | 266 | 9.7 | 29.0 | 0.00 | 0.84 | 0.66 | 54 | 1012.3 |
| 20260502152305 | 7 | 231 | 8.0 | 20.9 | 0.00 | 0.84 | 0.66 | 59 | 1012.4 |
| 20260502151802 | 8 | 299 | 11.3 | 20.9 | 0.00 | 0.84 | 0.66 | 56 | 1012.5 |
| 20260502151302 | 7 | 258 | 11.3 | 20.9 | 0.00 | 0.84 | 0.66 | 56 | 1012.5 |
| 20260502150802 | 7 | 354 | 9.7 | 19.3 | 0.00 | 0.84 | 0.66 | 60 | 1012.4 |
| 20260502150303 | 7 | 351 | 8.0 | 19.3 | 0.00 | 0.84 | 0.66 | 60 | 1012.4 |
| 20260502130302 | 5 | 292 | 8.0 | 24.1 | 0.00 | 0.84 | 0.66 | 77 | 1012.7 |
| 20260502123802 | 5 | 335 | 14.5 | 22.5 | 0.00 | 0.84 | 0.66 | 78 | 1012.7 |
| 20260502123302 | 5 | 332 | 14.5 | 22.5 | 0.00 | 0.84 | 0.66 | 79 | 1012.7 |
| 20260502122803 | 5 | 335 | 9.7 | 20.9 | 0.00 | 0.84 | 0.66 | 80 | 1012.6 |
| 20260502122305 | 5 | 333 | 8.0 | 20.9 | 0.00 | 0.84 | 0.66 | 81 | 1012.6 |
| 20260502121803 | 5 | 352 | 8.0 | 14.5 | 0.00 | 0.84 | 0.66 | 81 | 1012.4 |
| 20260502121303 | 5 | 302 | 8.0 | 12.9 | 0.00 | 0.84 | 0.66 | 83 | 1012.3 |
| 20260502120803 | 5 | 294 | 3.2 | 9.7 | 0.00 | 0.84 | 0.66 | 83 | 1012.5 |
| 20260502120302 | 5 | 289 | 4.8 | 11.3 | 0.00 | 0.84 | 0.66 | 83 | 1012.6 |
| 20260502115803 | 5 | 318 | 4.8 | 12.9 | 0.00 | 0.84 | 0.66 | 83 | 1012.6 |
| 20260502115306 | 4 | 305 | 8.0 | 12.9 | 0.00 | 0.84 | 0.66 | 84 | 1012.7 |
| 20260502114802 | 4 | 271 | 4.8 | 9.7 | 0.00 | 0.84 | 0.66 | 84 | 1012.7 |
| 20260502114303 | 4 | 341 | 1.6 | 12.9 | 0.00 | 0.84 | 0.66 | 85 | 1012.6 |
| 20260502113803 | 4 | 346 | 4.8 | 12.9 | 0.00 | 0.84 | 0.66 | 85 | 1012.6 |
| 20260502113303 | 4 | 276 | 3.2 | 12.9 | 0.00 | 0.84 | 0.66 | 85 | 1012.6 |
| 20260502112305 | 4 | 329 | 3.2 | 11.3 | 0.00 | 0.84 | 0.66 | 85 | 1012.7 |
| 20260502111803 | 4 | 259 | 4.8 | 11.3 | 0.00 | 0.84 | 0.66 | 85 | 1012.8 |
| 20260502111303 | 4 | 265 | 3.2 | 9.7 | 0.00 | 0.84 | 0.66 | 85 | 1012.9 |
| 20260502110803 | 4 | 273 | 3.2 | 14.5 | 0.00 | 0.84 | 0.66 | 85 | 1012.8 |
| 20260502110303 | 3 | 279 | 3.2 | 14.5 | 0.00 | 0.84 | 0.66 | 84 | 1012.7 |
| 20260502105802 | 3 | 275 | 3.2 | 14.5 | 0.00 | 0.84 | 0.66 | 86 | 1012.6 |
| 20260502105305 | 3 | 276 | 3.2 | 4.8 | 0.00 | 0.84 | 0.66 | 85 | 1012.6 |
| 20260502104803 | 3 | 241 | 1.6 | 4.8 | 0.00 | 0.84 | 0.66 | 85 | 1012.7 |
| 20260502104302 | 3 | 311 | 1.6 | 4.8 | 0.00 | 0.84 | 0.66 | 84 | 1012.6 |
| 20260502103803 | 3 | 270 | 3.2 | 4.8 | 0.00 | 0.84 | 0.66 | 85 | 1012.5 |
| 20260502102803 | 3 | 230 | 0.0 | 4.8 | 0.00 | 0.84 | 0.66 | 85 | 1012.2 |
| 20260502101803 | 3 | 298 | 3.2 | 11.3 | 0.00 | 0.84 | 0.66 | 85 | 1012.0 |
| 20260502101303 | 3 | 334 | 3.2 | 9.7 | 0.00 | 0.84 | 0.66 | 84 | 1012.2 |
| 20260502100803 | 3 | 213 | 1.6 | 4.8 | 0.00 | 0.84 | 0.66 | 84 | 1012.2 |
| 20260502100303 | 3 | 259 | 0.0 | 9.7 | 0.00 | 0.84 | 0.66 | 83 | 1012.1 |
| 20260502091303 | 5 | 273 | 12.9 | 22.5 | 0.15 | 0.84 | 0.66 | 85 | 1011.5 |
| 20260502090803 | 5 | 278 | 6.4 | 19.3 | 0.15 | 0.84 | 0.66 | 86 | 1011.4 |
| 20260502071303 | 6 | 134 | 0.0 | 0.0 | 0.00 | 0.69 | 0.51 | 90 | 1010.4 |
| 20260502070803 | 6 | 134 | 0.0 | 0.0 | 0.03 | 0.69 | 0.51 | 90 | 1010.4 |
| 20260502070303 | 6 | 134 | 0.0 | 0.0 | 0.03 | 0.69 | 0.51 | 90 | 1010.3 |
| 20260502065803 | 6 | 134 | 0.0 | 0.0 | 0.03 | 0.69 | 0.51 | 90 | 1010.5 |
| 20260502065305 | 6 | 134 | 0.0 | 0.0 | 0.05 | 0.69 | 0.51 | 90 | 1010.6 |
| 20260502064803 | 6 | 134 | 0.0 | 0.0 | 0.05 | 0.69 | 0.51 | 90 | 1010.7 |
| 20260502063803 | 6 | 134 | 0.0 | 0.0 | 0.08 | 0.69 | 0.51 | 90 | 1010.8 |
| 20260502063303 | 6 | 134 | 0.0 | 3.2 | 0.08 | 0.69 | 0.51 | 90 | 1010.9 |
| 20260502062306 | 6 | 134 | 0.0 | 3.2 | 0.15 | 0.69 | 0.51 | 90 | 1010.9 |
| 20260502060803 | 6 | 134 | 0.0 | 1.6 | 0.20 | 0.66 | 0.48 | 90 | 1011.2 |
| 20260502060303 | 6 | 134 | 0.0 | 1.6 | 0.20 | 0.66 | 0.48 | 90 | 1011.4 |
| 20260502055803 | 6 | 134 | 0.0 | 1.6 | 0.23 | 0.66 | 0.48 | 90 | 1011.4 |
| 20260502055305 | 6 | 134 | 0.0 | 1.6 | 0.23 | 0.64 | 0.46 | 90 | 1011.6 |
| 20260502054803 | 6 | 134 | 0.0 | 3.2 | 0.25 | 0.64 | 0.46 | 90 | 1011.6 |
| 20260502053303 | 6 | 134 | 0.0 | 3.2 | 0.33 | 0.61 | 0.43 | 89 | 1011.5 |
| 20260502052803 | 6 | 134 | 0.0 | 3.2 | 0.36 | 0.58 | 0.41 | 89 | 1011.6 |
| 20260502052305 | 6 | 134 | 0.0 | 3.2 | 0.33 | 0.53 | 0.36 | 89 | 1011.8 |
| 20260502051803 | 6 | 138 | 0.0 | 3.2 | 0.30 | 0.51 | 0.33 | 89 | 1011.8 |
| 20260502051303 | 6 | 138 | 0.0 | 1.6 | 0.28 | 0.48 | 0.30 | 89 | 1011.9 |
| 20260502050303 | 6 | 163 | 0.0 | 3.2 | 0.28 | 0.46 | 0.28 | 89 | 1012.0 |
| 20260502045803 | 6 | 163 | 0.0 | 3.2 | 0.08 | 0.43 | 0.25 | 88 | 1011.9 |
| 20260502045305 | 7 | 214 | 1.6 | 4.8 | 0.08 | 0.41 | 0.23 | 89 | 1011.8 |
| 20260502044803 | 7 | 201 | 1.6 | 4.8 | 0.05 | 0.38 | 0.20 | 89 | 1011.8 |
| 20260502043803 | 7 | 104 | 0.0 | 3.2 | 0.00 | 0.33 | 0.15 | 90 | 1011.8 |
| 20260502043303 | 7 | 104 | 0.0 | 3.2 | 0.13 | 0.28 | 0.10 | 90 | 1012.0 |
| 20260502042803 | 7 | 137 | 0.0 | 1.6 | 0.08 | 0.23 | 0.05 | 89 | 1012.1 |
| 20260502042305 | 7 | 121 | 0.0 | 0.0 | 0.05 | 0.20 | 0.03 | 89 | 1012.0 |
| 20260502041803 | 7 | 121 | 0.0 | 0.0 | 0.05 | 0.20 | 0.03 | 89 | 1011.9 |
| 20260502041303 | 7 | 121 | 0.0 | 0.0 | 0.08 | 0.20 | 0.03 | 89 | 1011.9 |
| 20260502040814 | 7 | 121 | 0.0 | 0.0 | 0.05 | 0.18 | 0.00 | 89 | 1011.8 |
| 20260502040303 | 7 | 121 | 0.0 | 0.0 | 0.05 | 0.18 | 0.00 | 89 | 1011.7 |
| 20260502035803 | 7 | 121 | 0.0 | 0.0 | 0.05 | 0.18 | 0.18 | 89 | 1011.7 |
| 20260502035306 | 7 | 121 | 0.0 | 0.0 | 0.03 | 0.15 | 0.15 | 89 | 1011.7 |
| 20260502034803 | 7 | 121 | 0.0 | 0.0 | 0.05 | 0.15 | 0.15 | 89 | 1011.7 |
| 20260502034303 | 7 | 121 | 0.0 | 0.0 | 0.08 | 0.15 | 0.15 | 89 | 1011.6 |
| 20260502033803 | 7 | 121 | 0.0 | 0.0 | 0.08 | 0.15 | 0.15 | 89 | 1011.6 |
| 20260502032803 | 7 | 221 | 0.0 | 3.2 | 0.08 | 0.15 | 0.15 | 89 | 1011.6 |
| 20260502032305 | 7 | 216 | 0.0 | 3.2 | 0.08 | 0.15 | 0.15 | 88 | 1011.7 |
| 20260502031804 | 7 | 276 | 0.0 | 3.2 | 0.08 | 0.15 | 0.15 | 88 | 1011.7 |
| 20260502031303 | 7 | 231 | 1.6 | 4.8 | 0.05 | 0.13 | 0.13 | 88 | 1011.7 |
| 20260502030804 | 7 | 231 | 3.2 | 4.8 | 0.05 | 0.13 | 0.13 | 88 | 1011.7 |
| 20260502030303 | 7 | 308 | 0.0 | 3.2 | 0.08 | 0.13 | 0.13 | 88 | 1011.4 |
| 20260502025803 | 7 | 309 | 1.6 | 3.2 | 0.08 | 0.13 | 0.13 | 88 | 1011.4 |
| 20260502024803 | 7 | 301 | 1.6 | 3.2 | 0.05 | 0.10 | 0.10 | 87 | 1011.6 |
| 20260502024304 | 7 | 301 | 1.6 | 3.2 | 0.03 | 0.08 | 0.08 | 87 | 1011.5 |
| 20260502023803 | 7 | 301 | 1.6 | 3.2 | 0.03 | 0.08 | 0.08 | 87 | 1011.6 |
| 20260502023303 | 7 | 301 | 1.6 | 3.2 | 0.03 | 0.08 | 0.08 | 87 | 1011.7 |
| 20260502022803 | 7 | 293 | 1.6 | 3.2 | 0.03 | 0.08 | 0.08 | 87 | 1011.6 |
| 20260502022306 | 7 | 307 | 1.6 | 3.2 | 0.03 | 0.08 | 0.08 | 87 | 1011.7 |
| 20260502021304 | 7 | 298 | 0.0 | 3.2 | 0.03 | 0.08 | 0.08 | 86 | 1011.8 |
| 20260502020804 | 7 | 298 | 0.0 | 3.2 | 0.03 | 0.08 | 0.08 | 86 | 1011.9 |
| 20260502015305 | 7 | 327 | 1.6 | 4.8 | 0.00 | 0.05 | 0.05 | 86 | 1011.4 |
| 20260502014804 | 7 | 313 | 0.0 | 0.0 | 0.03 | 0.05 | 0.05 | 85 | 1011.3 |
| 20260502014304 | 7 | 313 | 0.0 | 0.0 | 0.03 | 0.05 | 0.05 | 85 | 1011.3 |
| 20260502013803 | 7 | 313 | 0.0 | 0.0 | 0.03 | 0.05 | 0.05 | 86 | 1011.4 |
| 20260502013304 | 8 | 313 | 0.0 | 0.0 | 0.03 | 0.05 | 0.05 | 86 | 1011.5 |
| 20260502012803 | 8 | 252 | 0.0 | 3.2 | 0.03 | 0.05 | 0.05 | 86 | 1011.5 |
| 20260502012306 | 8 | 252 | 0.0 | 3.2 | 0.03 | 0.05 | 0.05 | 86 | 1011.4 |
| 20260502011803 | 8 | 252 | 1.6 | 3.2 | 0.03 | 0.05 | 0.05 | 85 | 1011.4 |
| 20260502010804 | 8 | 246 | 0.0 | 0.0 | 0.03 | 0.05 | 0.05 | 84 | 1011.3 |
| 20260502010303 | 8 | 246 | 0.0 | 0.0 | 0.05 | 0.05 | 0.05 | 84 | 1011.3 |
| 20260502005803 | 8 | 246 | 0.0 | 0.0 | 0.05 | 0.05 | 0.05 | 84 | 1011.4 |
| 20260502005306 | 8 | 246 | 0.0 | 3.2 | 0.05 | 0.05 | 0.05 | 82 | 1011.4 |
| 20260502004804 | 8 | 246 | 0.0 | 3.2 | 0.03 | 0.05 | 0.03 | 82 | 1011.2 |
| 20260502003804 | 8 | 246 | 0.0 | 3.2 | 0.03 | 0.05 | 0.03 | 80 | 1011.2 |
| 20260502003303 | 8 | 290 | 0.0 | 3.2 | 0.03 | 0.05 | 0.03 | 80 | 1011.1 |
| 20260502002803 | 8 | 300 | 0.0 | 3.2 | 0.03 | 0.05 | 0.03 | 79 | 1011.2 |
| 20260502002305 | 8 | 311 | 1.6 | 3.2 | 0.03 | 0.05 | 0.03 | 78 | 1011.1 |
| 20260502001803 | 8 | 281 | 0.0 | 3.2 | 0.03 | 0.05 | 0.03 | 77 | 1011.1 |
| 20260502001303 | 9 | 232 | 1.6 | 3.2 | 0.03 | 0.05 | 0.03 | 77 | 1011.2 |
| 20260502000803 | 9 | 281 | 0.0 | 4.8 | 0.03 | 0.05 | 0.03 | 75 | 1011.2 |
| 20260502000303 | 9 | 251 | 1.6 | 11.3 | 0.00 | 0.05 | 0.00 | 73 | 1011.2 |
| 20260501235803 | 10 | 249 | 3.2 | 11.3 | 0.00 | 0.05 | 0.00 | 72 | 1011.3 |
| 20260501235305 | 10 | 237 | 4.8 | 11.3 | 0.00 | 0.05 | 0.00 | 70 | 1011.3 |
| 20260501234803 | 10 | 246 | 3.2 | 11.3 | 0.00 | 0.05 | 0.00 | 69 | 1011.2 |
| 20260501234303 | 10 | 233 | 3.2 | 11.3 | 0.00 | 0.05 | 0.00 | 68 | 1011.2 |
| 20260501233803 | 10 | 239 | 8.0 | 11.3 | 0.00 | 0.05 | 0.00 | 68 | 1011.1 |
| 20260501233303 | 10 | 263 | 4.8 | 11.3 | 0.00 | 0.08 | 0.00 | 66 | 1011.0 |
| 20260501232803 | 10 | 255 | 6.4 | 20.9 | 0.00 | 0.08 | 0.00 | 65 | 1010.8 |
| 20260501232306 | 11 | 275 | 4.8 | 20.9 | 0.00 | 0.10 | 0.00 | 64 | 1010.8 |
| 20260501231803 | 11 | 241 | 6.4 | 16.1 | 0.00 | 0.10 | 0.00 | 63 | 1010.7 |
| 20260501230804 | 11 | 261 | 3.2 | 4.8 | 0.00 | 0.15 | 0.00 | 63 | 1010.3 |
| 20260501230304 | 11 | 292 | 0.0 | 3.2 | 0.00 | 0.15 | 0.00 | 63 | 1010.3 |
| 20260501225803 | 11 | 292 | 0.0 | 0.0 | 0.00 | 0.15 | 0.00 | 63 | 1010.2 |
| 20260501225306 | 11 | 292 | 0.0 | 0.0 | 0.00 | 0.15 | 0.00 | 63 | 1010.1 |
| 20260501224804 | 11 | 292 | 0.0 | 0.0 | 0.00 | 0.18 | 0.00 | 62 | 1010.2 |
| 20260501224303 | 11 | 292 | 0.0 | 1.6 | 0.00 | 0.18 | 0.00 | 62 | 1010.2 |
| 20260501223803 | 11 | 292 | 0.0 | 1.6 | 0.00 | 0.18 | 0.00 | 63 | 1010.2 |
| 20260501223303 | 11 | 292 | 1.6 | 1.6 | 0.00 | 0.18 | 0.00 | 63 | 1010.2 |
| 20260501222803 | 11 | 273 | 0.0 | 3.2 | 0.00 | 0.18 | 0.00 | 62 | 1010.2 |
| 20260501222305 | 11 | 273 | 0.0 | 3.2 | 0.00 | 0.18 | 0.00 | 61 | 1010.2 |
| 20260501221804 | 11 | 255 | 1.6 | 3.2 | 0.00 | 0.20 | 0.00 | 60 | 1010.2 |
| 20260501221303 | 11 | 247 | 0.0 | 3.2 | 0.00 | 0.20 | 0.00 | 60 | 1010.2 |
| 20260501220804 | 11 | 215 | 0.0 | 4.8 | 0.00 | 0.20 | 0.00 | 59 | 1010.2 |
| 20260501215803 | 11 | 232 | 3.2 | 4.8 | 0.00 | 0.20 | 0.00 | 60 | 1010.5 |
| 20260501214803 | 12 | 213 | 1.6 | 11.3 | 0.00 | 0.20 | 0.00 | 57 | 1010.3 |
| 20260501213803 | 12 | 190 | 1.6 | 8.0 | 0.00 | 0.20 | 0.00 | 53 | 1010.2 |
| 20260501213304 | 12 | 258 | 3.2 | 4.8 | 0.00 | 0.20 | 0.00 | 51 | 1010.0 |
| 20260501212803 | 12 | 247 | 3.2 | 4.8 | 0.00 | 0.20 | 0.00 | 49 | 1009.8 |
| 20260501212305 | 12 | 255 | 1.6 | 4.8 | 0.00 | 0.20 | 0.00 | 51 | 1009.8 |
| 20260501211803 | 12 | 271 | 1.6 | 4.8 | 0.00 | 0.20 | 0.00 | 50 | 1009.8 |
| 20260501211303 | 12 | 282 | 0.0 | 3.2 | 0.00 | 0.20 | 0.00 | 51 | 1009.7 |
| 20260501210804 | 12 | 294 | 1.6 | 4.8 | 0.00 | 0.20 | 0.00 | 51 | 1009.7 |
| 20260501210303 | 12 | 260 | 3.2 | 12.9 | 0.00 | 0.20 | 0.00 | 50 | 1009.6 |
| 20260501205804 | 12 | 230 | 3.2 | 19.3 | 0.00 | 0.20 | 0.00 | 49 | 1009.6 |
| 20260501205306 | 13 | 197 | 8.0 | 19.3 | 0.00 | 0.20 | 0.00 | 49 | 1009.8 |
| 20260501204803 | 13 | 246 | 8.0 | 19.3 | 0.00 | 0.20 | 0.00 | 51 | 1009.8 |
| 20260501203304 | 12 | 208 | 3.2 | 16.1 | 0.00 | 0.20 | 0.00 | 48 | 1009.9 |
| 20260501202803 | 12 | 195 | 3.2 | 9.7 | 0.00 | 0.20 | 0.00 | 48 | 1010.0 |
| 20260501202306 | 12 | 222 | 3.2 | 11.3 | 0.00 | 0.20 | 0.00 | 48 | 1010.0 |
| 20260501201804 | 12 | 274 | 4.8 | 12.9 | 0.00 | 0.20 | 0.00 | 48 | 1010.0 |
| 20260501201304 | 12 | 294 | 6.4 | 12.9 | 0.00 | 0.20 | 0.00 | 48 | 1010.1 |
| 20260501200804 | 12 | 225 | 3.2 | 14.5 | 0.00 | 0.20 | 0.00 | 47 | 1010.1 |
| 20260501200304 | 12 | 223 | 4.8 | 20.9 | 0.00 | 0.20 | 0.00 | 47 | 1010.1 |
| 20260501195306 | 13 | 202 | 12.9 | 19.3 | 0.00 | 0.20 | 0.00 | 47 | 1010.1 |
| 20260501194803 | 13 | 277 | 9.7 | 19.3 | 0.00 | 0.20 | 0.00 | 48 | 1010.1 |
| 20260501194304 | 13 | 222 | 8.0 | 19.3 | 0.00 | 0.20 | 0.00 | 47 | 1010.1 |
| 20260501193803 | 13 | 239 | 9.7 | 20.9 | 0.00 | 0.20 | 0.00 | 46 | 1010.2 |
| 20260501193303 | 13 | 270 | 9.7 | 20.9 | 0.00 | 0.20 | 0.00 | 47 | 1010.2 |
| 20260501192804 | 13 | 253 | 8.0 | 19.3 | 0.00 | 0.20 | 0.00 | 45 | 1010.3 |
| 20260501192306 | 13 | 223 | 12.9 | 25.7 | 0.00 | 0.20 | 0.00 | 46 | 1010.2 |
| 20260501191804 | 13 | 237 | 12.9 | 25.7 | 0.00 | 0.20 | 0.00 | 47 | 1010.4 |
| 20260501191304 | 13 | 269 | 0.0 | 16.1 | 0.00 | 0.20 | 0.00 | 48 | 1010.3 |
| 20260501190804 | 13 | 244 | 6.4 | 20.9 | 0.00 | 0.20 | 0.00 | 46 | 1010.3 |
| 20260501190304 | 13 | 231 | 9.7 | 22.5 | 0.00 | 0.20 | 0.00 | 46 | 1010.4 |
| 20260501185804 | 13 | 205 | 3.2 | 22.5 | 0.00 | 0.20 | 0.00 | 45 | 1010.4 |
| 20260501185306 | 13 | 204 | 4.8 | 19.3 | 0.00 | 0.20 | 0.00 | 48 | 1010.4 |
| 20260501184804 | 13 | 224 | 4.8 | 19.3 | 0.00 | 0.20 | 0.00 | 44 | 1010.5 |
| 20260501183803 | 14 | 221 | 9.7 | 14.5 | 0.00 | 0.20 | 0.00 | 49 | 1010.5 |
| 20260501183303 | 14 | 245 | 3.2 | 14.5 | 0.00 | 0.20 | 0.00 | 46 | 1010.5 |
| 20260501182803 | 13 | 222 | 6.4 | 14.5 | 0.00 | 0.20 | 0.00 | 48 | 1010.6 |
| 20260501182306 | 13 | 160 | 4.8 | 19.3 | 0.00 | 0.20 | 0.00 | 47 | 1010.7 |
| 20260501181804 | 13 | 194 | 8.0 | 19.3 | 0.00 | 0.20 | 0.00 | 48 | 1010.7 |
| 20260501181303 | 13 | 233 | 9.7 | 19.3 | 0.00 | 0.20 | 0.00 | 48 | 1010.8 |
| 20260501180803 | 13 | 211 | 9.7 | 16.1 | 0.00 | 0.20 | 0.00 | 47 | 1010.9 |
| 20260501180304 | 13 | 234 | 9.7 | 32.2 | 0.00 | 0.20 | 0.00 | 48 | 1010.8 |
| 20260501175804 | 13 | 219 | 14.5 | 32.2 | 0.00 | 0.20 | 0.00 | 46 | 1010.9 |
| 20260501175306 | 13 | 204 | 3.2 | 16.1 | 0.00 | 0.20 | 0.00 | 48 | 1010.8 |
| 20260501174804 | 13 | 217 | 9.7 | 22.5 | 0.00 | 0.20 | 0.00 | 47 | 1010.9 |
| 20260501174304 | 13 | 185 | 9.7 | 22.5 | 0.00 | 0.20 | 0.00 | 50 | 1010.9 |
| 20260501173303 | 12 | 318 | 3.2 | 11.3 | 0.00 | 0.20 | 0.00 | 47 | 1010.9 |
| 20260501172803 | 12 | 231 | 4.8 | 16.1 | 0.00 | 0.20 | 0.00 | 51 | 1011.0 |
| 20260501172305 | 12 | 196 | 4.8 | 19.3 | 0.00 | 0.20 | 0.00 | 51 | 1011.0 |
| 20260501171803 | 12 | 218 | 14.5 | 19.3 | 0.00 | 0.20 | 0.00 | 48 | 1011.1 |
| 20260501171302 | 12 | 172 | 3.2 | 14.5 | 0.00 | 0.20 | 0.00 | 53 | 1011.0 |
| 20260501170802 | 12 | 223 | 8.0 | 19.3 | 0.00 | 0.20 | 0.00 | 54 | 1011.1 |
| 20260501170302 | 12 | 278 | 4.8 | 19.3 | 0.00 | 0.20 | 0.00 | 50 | 1011.2 |
| 20260501165802 | 12 | 222 | 8.0 | 16.1 | 0.00 | 0.20 | 0.00 | 51 | 1011.1 |